• In Deutschland
  • Länderverzeichnis
  • Für 7 Tage
  • Wassertemperatur
  • Satellitenkarten
  • Wetterkarte
  • Widgets
  • user-avatar
    Anmelden

    Stündliche Wetter Chien

    Heute, 21 Juli, Samstag

    Zeit Temperatur Niederschläge Wind Luftdruck Luftfeuchtigkeit
    00:00 +24°C° 0 mm 1 m/S 741 mmHg 97%
    01:00 +24°C° 0 mm 1 m/S 741 mmHg 97%
    02:00 +24°C° 0 mm 1 m/S 741 mmHg 97%
    03:00 +24°C° 0,1 mm 1 m/S 741 mmHg 97%
    04:00 +24°C° 0,1 mm 1 m/S 741 mmHg 97%
    05:00 +24°C° 0 mm 1 m/S 741 mmHg 97%
    06:00 +25°C° 0,2 mm 1 m/S 741 mmHg 96%
    07:00 +25°C° 0,2 mm 1 m/S 742 mmHg 94%
    08:00 +26°C° 0,2 mm 1 m/S 742 mmHg 93%
    09:00 +27°C° 0,5 mm 1 m/S 742 mmHg 88%
    10:00 +28°C° 0,5 mm 1 m/S 741 mmHg 83%
    11:00 +29°C° 0,5 mm 1 m/S 741 mmHg 79%
    12:00 +29°C° 1,2 mm 1 m/S 741 mmHg 79%
    13:00 +29°C° 1,2 mm 1 m/S 740 mmHg 79%
    14:00 +29°C° 1,2 mm 1 m/S 740 mmHg 80%
    15:00 +28°C° 1,4 mm 1 m/S 740 mmHg 84%
    16:00 +27°C° 1,4 mm 1 m/S 740 mmHg 88%
    17:00 +26°C° 1,4 mm 1 m/S 740 mmHg 93%
    18:00 +26°C° 1,2 mm 1 m/S 740 mmHg 94%
    19:00 +25°C° 1,2 mm 1 m/S 741 mmHg 95%
    20:00 +25°C° 1,2 mm 1 m/S 741 mmHg 97%
    21:00 +24°C° 0,5 mm 1 m/S 741 mmHg 97%
    22:00 +24°C° 0,5 mm 1 m/S 742 mmHg 97%
    23:00 +24°C° 0,5 mm 1 m/S 742 mmHg 98%

    Morgen, 22 Juli, Sonntag

    Zeit Temperatur Niederschläge Wind Luftdruck Luftfeuchtigkeit
    00:00 +24°C° 0,5 mm 1 m/S 741 mmHg 98%
    01:00 +24°C° 0,5 mm 1 m/S 741 mmHg 98%
    02:00 +24°C° 0,5 mm 1 m/S 741 mmHg 98%
    03:00 +24°C° 0,4 mm 1 m/S 741 mmHg 98%
    04:00 +23°C° 0,4 mm 1 m/S 741 mmHg 98%
    05:00 +23°C° 0,4 mm 1 m/S 741 mmHg 98%
    06:00 +24°C° 0,1 mm 1 m/S 741 mmHg 97%
    07:00 +24°C° 0,1 mm 1 m/S 741 mmHg 95%
    08:00 +25°C° 0,1 mm 1 m/S 742 mmHg 93%
    09:00 +26°C° 0,1 mm 1 m/S 742 mmHg 86%
    10:00 +28°C° 0,1 mm 1 m/S 742 mmHg 79%
    11:00 +29°C° 0,1 mm 1 m/S 742 mmHg 72%
    12:00 +29°C° 0,4 mm 1 m/S 741 mmHg 71%
    13:00 +30°C° 0,4 mm 1 m/S 741 mmHg 71%
    14:00 +30°C° 0,4 mm 1 m/S 740 mmHg 70%
    15:00 +29°C° 0,5 mm 1 m/S 740 mmHg 75%
    16:00 +29°C° 0,5 mm 1 m/S 740 mmHg 80%
    17:00 +28°C° 0,5 mm 1 m/S 740 mmHg 85%
    18:00 +27°C° 0,2 mm 1 m/S 740 mmHg 89%
    19:00 +26°C° 0,2 mm 1 m/S 741 mmHg 92%
    20:00 +24°C° 0,2 mm 1 m/S 742 mmHg 95%
    21:00 +24°C° 0,1 mm 1 m/S 742 mmHg 96%
    22:00 +24°C° 0,1 mm 1 m/S 742 mmHg 97%
    23:00 +23°C° 0,1 mm 1 m/S 742 mmHg 98%

    übermorgen, 23 Juli, Montag

    Zeit Temperatur Niederschläge Wind Luftdruck Luftfeuchtigkeit
    00:00 +23°C° 0 mm 1 m/S 742 mmHg 98%
    01:00 +21°C° 0 mm 0 m/S 742 mmHg 98%
    02:00 +21°C° 0 mm 0 m/S 741 mmHg 98%
    03:00 +21°C° 0 mm 0 m/S 741 mmHg 98%
    04:00 +21°C° 0 mm 0 m/S 742 mmHg 98%
    05:00 +21°C° 0 mm 0 m/S 742 mmHg 98%
    06:00 +22°C° 0 mm 0 m/S 742 mmHg 94%
    07:00 +23°C° 0 mm 0 m/S 742 mmHg 90%
    08:00 +26°C° 0 mm 1 m/S 743 mmHg 85%
    09:00 +28°C° 0 mm 1 m/S 743 mmHg 75%
    10:00 +28°C° 0 mm 0 m/S 743 mmHg 65%
    11:00 +31°C° 0 mm 0 m/S 743 mmHg 55%
    12:00 +30°C° 0,1 mm 0 m/S 743 mmHg 58%
    13:00 +31°C° 0,1 mm 1 m/S 742 mmHg 60%
    14:00 +30°C° 0,1 mm 1 m/S 741 mmHg 63%
    15:00 +30°C° 0 mm 1 m/S 741 mmHg 65%
    16:00 +30°C° 0 mm 1 m/S 741 mmHg 67%
    17:00 +29°C° 0 mm 1 m/S 741 mmHg 69%
    18:00 +28°C° 0 mm 1 m/S 741 mmHg 75%
    19:00 +27°C° 0 mm 1 m/S 742 mmHg 81%
    20:00 +25°C° 0 mm 1 m/S 743 mmHg 87%
    21:00 +25°C° 0 mm 1 m/S 743 mmHg 90%
    22:00 +24°C° 0 mm 1 m/S 744 mmHg 93%
    23:00 +24°C° 0 mm 1 m/S 744 mmHg 96%

    24 Juli, Dienstag

    Zeit Temperatur Niederschläge Wind Luftdruck Luftfeuchtigkeit
    00:00 +24°C° 0 mm 1 m/S 743 mmHg 96%
    01:00 +23°C° 0 mm 1 m/S 743 mmHg 97%
    02:00 +23°C° 0 mm 1 m/S 742 mmHg 97%
    03:00 +23°C° 0 mm 1 m/S 742 mmHg 97%
    04:00 +23°C° 0 mm 1 m/S 742 mmHg 97%
    05:00 +23°C° 0 mm 1 m/S 742 mmHg 97%
    06:00 +24°C° 0 mm 1 m/S 743 mmHg 94%
    07:00 +24°C° 0 mm 1 m/S 743 mmHg 92%
    08:00 +25°C° 0 mm 1 m/S 744 mmHg 89%
    09:00 +26°C° 0,1 mm 1 m/S 744 mmHg 84%
    10:00 +27°C° 0,1 mm 1 m/S 744 mmHg 78%
    11:00 +28°C° 0,1 mm 1 m/S 744 mmHg 73%
    12:00 +29°C° 0 mm 1 m/S 743 mmHg 69%
    13:00 +30°C° 0 mm 1 m/S 743 mmHg 66%
    14:00 +30°C° 0 mm 1 m/S 742 mmHg 62%
    15:00 +29°C° 0 mm 1 m/S 742 mmHg 67%
    16:00 +29°C° 0 mm 1 m/S 742 mmHg 72%
    17:00 +28°C° 0 mm 1 m/S 742 mmHg 76%
    18:00 +27°C° 0 mm 1 m/S 742 mmHg 81%
    19:00 +26°C° 0 mm 1 m/S 743 mmHg 86%
    20:00 +25°C° 0 mm 1 m/S 743 mmHg 91%
    21:00 +24°C° 0 mm 1 m/S 744 mmHg 93%
    22:00 +24°C° 0 mm 1 m/S 744 mmHg 95%
    23:00 +23°C° 0 mm 1 m/S 744 mmHg 96%

    25 Juli, Mittwoch

    Zeit Temperatur Niederschläge Wind Luftdruck Luftfeuchtigkeit
    00:00 +23°C° 0 mm 1 m/S 744 mmHg 96%
    01:00 +23°C° 0 mm 1 m/S 743 mmHg 96%
    02:00 +23°C° 0 mm 1 m/S 742 mmHg 96%
    03:00 +23°C° 0 mm 1 m/S 743 mmHg 96%
    04:00 +23°C° 0 mm 1 m/S 743 mmHg 96%
    05:00 +23°C° 0 mm 1 m/S 743 mmHg 96%
    06:00 +24°C° 0,1 mm 1 m/S 744 mmHg 93%
    07:00 +24°C° 0,1 mm 1 m/S 744 mmHg 90%
    08:00 +25°C° 0,1 mm 1 m/S 745 mmHg 87%
    09:00 +26°C° 0,1 mm 1 m/S 744 mmHg 84%
    10:00 +26°C° 0,1 mm 1 m/S 744 mmHg 81%
    11:00 +27°C° 0,1 mm 1 m/S 744 mmHg 77%
    12:00 +28°C° 0 mm 1 m/S 743 mmHg 74%
    13:00 +28°C° 0 mm 2 m/S 743 mmHg 72%
    14:00 +29°C° 0 mm 2 m/S 742 mmHg 69%
    15:00 +29°C° 0 mm 2 m/S 742 mmHg 71%
    16:00 +28°C° 0 mm 2 m/S 742 mmHg 73%
    17:00 +28°C° 0 mm 2 m/S 742 mmHg 76%
    18:00 +27°C° 0 mm 1 m/S 742 mmHg 81%
    19:00 +26°C° 0 mm 1 m/S 743 mmHg 86%
    20:00 +25°C° 0 mm 1 m/S 744 mmHg 91%
    21:00 +24°C° 0 mm 1 m/S 744 mmHg 93%
    22:00 +24°C° 0 mm 1 m/S 744 mmHg 95%
    23:00 +23°C° 0 mm 1 m/S 744 mmHg 96%

    26 Juli, Donnerstag

    Zeit Temperatur Niederschläge Wind Luftdruck Luftfeuchtigkeit
    00:00 +23°C° 0 mm 1 m/S 743 mmHg 96%
    01:00 +23°C° 0 mm 1 m/S 743 mmHg 96%
    02:00 +23°C° 0 mm 1 m/S 742 mmHg 95%
    03:00 +23°C° 0,1 mm 1 m/S 742 mmHg 96%
    04:00 +23°C° 0,1 mm 1 m/S 743 mmHg 97%
    05:00 +23°C° 0,1 mm 1 m/S 743 mmHg 97%
    06:00 +24°C° 0,1 mm 1 m/S 743 mmHg 94%
    07:00 +25°C° 0,1 mm 1 m/S 744 mmHg 90%
    08:00 +26°C° 0,1 mm 1 m/S 744 mmHg 86%
    09:00 +27°C° 0,2 mm 1 m/S 744 mmHg 81%
    10:00 +28°C° 0,2 mm 1 m/S 743 mmHg 76%
    11:00 +29°C° 0,2 mm 2 m/S 743 mmHg 71%
    12:00 +29°C° 0,7 mm 2 m/S 742 mmHg 74%
    13:00 +29°C° 0,7 mm 2 m/S 742 mmHg 76%
    14:00 +29°C° 0,7 mm 2 m/S 741 mmHg 78%
    15:00 +28°C° 0,9 mm 2 m/S 741 mmHg 81%
    16:00 +28°C° 0,9 mm 2 m/S 741 mmHg 84%
    17:00 +27°C° 0,9 mm 1 m/S 741 mmHg 88%
    18:00 +26°C° 0,1 mm 1 m/S 742 mmHg 90%
    19:00 +25°C° 0,1 mm 1 m/S 742 mmHg 92%
    20:00 +24°C° 0,1 mm 1 m/S 743 mmHg 94%
    21:00 +24°C° 0 mm 1 m/S 743 mmHg 95%
    22:00 +23°C° 0 mm 1 m/S 743 mmHg 96%
    23:00 +23°C° 0 mm 1 m/S 743 mmHg 97%
    Mehr zeigen